• In Romania
  • List of Countries
  • For 7 days
  • Water Temperature
  • Satellite Maps
  • Weather Map
  • Weather Widgets
  • user-avatar
    Login

    Hourly Weather Wiktoria

    Today, 28 February, Tuesday

    Time Temperature Precipitation Wind Pressure Humidity
    00:00 +22°C° 0 mm 1 mps 753 mmHg 45%
    01:00 +21°C° 0 mm 1 mps 753 mmHg 49%
    02:00 +21°C° 0 mm 1 mps 754 mmHg 51%
    03:00 +21°C° 0 mm 1 mps 754 mmHg 53%
    04:00 +20°C° 0 mm 1 mps 754 mmHg 55%
    05:00 +20°C° 0 mm 1 mps 754 mmHg 55%
    06:00 +20°C° 0 mm 1 mps 754 mmHg 56%
    07:00 +20°C° 0 mm 1 mps 755 mmHg 56%
    08:00 +23°C° 0 mm 1 mps 755 mmHg 48%
    09:00 +26°C° 0 mm 1 mps 755 mmHg 41%
    10:00 +29°C° 0 mm 1 mps 755 mmHg 33%
    11:00 +31°C° 0 mm 1 mps 754 mmHg 29%
    12:00 +32°C° 0 mm 0 mps 754 mmHg 24%
    13:00 +35°C° 0 mm 0 mps 753 mmHg 20%
    14:00 +34°C° 0 mm 0 mps 753 mmHg 19%
    15:00 +36°C° 0 mm 1 mps 752 mmHg 19%
    16:00 +36°C° 0 mm 1 mps 751 mmHg 18%
    17:00 +33°C° 0 mm 1 mps 751 mmHg 23%
    18:00 +29°C° 0 mm 1 mps 752 mmHg 28%
    19:00 +26°C° 0 mm 1 mps 752 mmHg 33%
    20:00 +26°C° 0 mm 1 mps 752 mmHg 34%
    21:00 +25°C° 0 mm 1 mps 752 mmHg 36%
    22:00 +24°C° 0 mm 1 mps 753 mmHg 37%
    23:00 +24°C° 0 mm 1 mps 753 mmHg 40%

    Tomorrow, 1 March, Wednesday

    Time Temperature Precipitation Wind Pressure Humidity
    00:00 +23°C° 0 mm 1 mps 753 mmHg 42%
    01:00 +22°C° 0 mm 1 mps 753 mmHg 45%
    02:00 +22°C° 0 mm 1 mps 753 mmHg 49%
    03:00 +22°C° 0 mm 1 mps 753 mmHg 53%
    04:00 +21°C° 0 mm 1 mps 753 mmHg 57%
    05:00 +21°C° 0 mm 1 mps 753 mmHg 61%
    06:00 +21°C° 0 mm 1 mps 754 mmHg 65%
    07:00 +22°C° 0 mm 1 mps 754 mmHg 69%
    08:00 +24°C° 0 mm 1 mps 754 mmHg 61%
    09:00 +27°C° 0 mm 1 mps 754 mmHg 54%
    10:00 +29°C° 0 mm 1 mps 754 mmHg 46%
    11:00 +32°C° 0 mm 1 mps 753 mmHg 38%
    12:00 +33°C° 0 mm 0 mps 753 mmHg 30%
    13:00 +36°C° 0 mm 0 mps 752 mmHg 22%
    14:00 +35°C° 0 mm 0 mps 751 mmHg 21%
    15:00 +37°C° 0 mm 1 mps 751 mmHg 20%
    16:00 +36°C° 0 mm 1 mps 750 mmHg 20%
    17:00 +34°C° 0 mm 1 mps 750 mmHg 24%
    18:00 +31°C° 0 mm 1 mps 750 mmHg 28%
    19:00 +28°C° 0 mm 1 mps 750 mmHg 32%
    20:00 +27°C° 0 mm 1 mps 751 mmHg 33%
    21:00 +27°C° 0 mm 1 mps 751 mmHg 34%
    22:00 +26°C° 0 mm 1 mps 752 mmHg 35%
    23:00 +25°C° 0 mm 1 mps 752 mmHg 36%

    Day after tomorrow, 2 March, Thursday

    Time Temperature Precipitation Wind Pressure Humidity
    00:00 +24°C° 0 mm 1 mps 751 mmHg 38%
    01:00 +23°C° 0 mm 1 mps 751 mmHg 39%
    02:00 +22°C° 0 mm 1 mps 751 mmHg 42%
    03:00 +22°C° 0 mm 1 mps 751 mmHg 44%
    04:00 +21°C° 0 mm 1 mps 751 mmHg 47%
    05:00 +22°C° 0 mm 1 mps 751 mmHg 51%
    06:00 +22°C° 0 mm 1 mps 752 mmHg 56%
    07:00 +22°C° 0 mm 1 mps 752 mmHg 60%
    08:00 +25°C° 0 mm 1 mps 752 mmHg 53%
    09:00 +29°C° 0 mm 1 mps 752 mmHg 45%
    10:00 +30°C° 0 mm 0 mps 752 mmHg 37%
    11:00 +34°C° 0 mm 1 mps 752 mmHg 31%
    12:00 +35°C° 0 mm 1 mps 751 mmHg 25%
    13:00 +38°C° 0 mm 2 mps 750 mmHg 19%
    14:00 +38°C° 0 mm 2 mps 750 mmHg 18%
    15:00 +38°C° 0 mm 2 mps 750 mmHg 17%
    16:00 +38°C° 0 mm 3 mps 749 mmHg 16%
    17:00 +36°C° 0 mm 2 mps 749 mmHg 18%
    18:00 +34°C° 0 mm 2 mps 750 mmHg 20%
    19:00 +31°C° 0 mm 2 mps 750 mmHg 22%
    20:00 +29°C° 0 mm 2 mps 751 mmHg 27%
    21:00 +28°C° 0 mm 2 mps 751 mmHg 32%
    22:00 +26°C° 0 mm 2 mps 752 mmHg 37%
    23:00 +25°C° 0 mm 2 mps 752 mmHg 44%

    3 March, Friday

    Time Temperature Precipitation Wind Pressure Humidity
    00:00 +24°C° 0 mm 2 mps 752 mmHg 51%
    01:00 +21°C° 0 mm 2 mps 752 mmHg 59%
    02:00 +21°C° 0 mm 2 mps 752 mmHg 63%
    03:00 +20°C° 0 mm 2 mps 752 mmHg 67%
    04:00 +19°C° 0 mm 2 mps 752 mmHg 72%
    05:00 +19°C° 0 mm 2 mps 752 mmHg 72%
    06:00 +19°C° 0 mm 2 mps 753 mmHg 72%
    07:00 +19°C° 0 mm 2 mps 753 mmHg 73%
    08:00 +23°C° 0 mm 2 mps 753 mmHg 61%
    09:00 +25°C° 0 mm 2 mps 753 mmHg 50%
    10:00 +28°C° 0 mm 2 mps 753 mmHg 39%
    11:00 +30°C° 0 mm 2 mps 753 mmHg 33%
    12:00 +32°C° 0 mm 1 mps 752 mmHg 27%
    13:00 +34°C° 0 mm 1 mps 752 mmHg 21%
    14:00 +35°C° 0 mm 2 mps 751 mmHg 21%
    15:00 +36°C° 0 mm 2 mps 751 mmHg 21%
    16:00 +36°C° 0 mm 2 mps 750 mmHg 21%
    17:00 +34°C° 0 mm 2 mps 750 mmHg 26%
    18:00 +31°C° 0 mm 2 mps 751 mmHg 32%
    19:00 +29°C° 0 mm 2 mps 751 mmHg 37%
    20:00 +27°C° 0 mm 2 mps 751 mmHg 44%
    21:00 +26°C° 0 mm 2 mps 752 mmHg 50%
    22:00 +24°C° 0 mm 1 mps 752 mmHg 57%
    23:00 +23°C° 0 mm 1 mps 752 mmHg 62%

    4 March, Saturday

    Time Temperature Precipitation Wind Pressure Humidity
    00:00 +21°C° 0 mm 1 mps 752 mmHg 67%
    01:00 +20°C° 0 mm 1 mps 752 mmHg 73%
    02:00 +20°C° 0 mm 1 mps 752 mmHg 75%
    03:00 +19°C° 0 mm 1 mps 752 mmHg 78%
    04:00 +18°C° 0 mm 1 mps 752 mmHg 81%
    05:00 +18°C° 0 mm 1 mps 752 mmHg 79%
    06:00 +19°C° 0 mm 1 mps 752 mmHg 78%
    07:00 +19°C° 0 mm 1 mps 753 mmHg 76%
    08:00 +22°C° 0 mm 1 mps 753 mmHg 64%
    09:00 +25°C° 0 mm 1 mps 752 mmHg 52%
    10:00 +29°C° 0 mm 1 mps 752 mmHg 39%
    11:00 +31°C° 0 mm 1 mps 752 mmHg 34%
    12:00 +31°C° 0 mm 0 mps 751 mmHg 29%
    13:00 +34°C° 0 mm 0 mps 750 mmHg 24%
    14:00 +35°C° 0 mm 1 mps 749 mmHg 23%
    15:00 +35°C° 0 mm 1 mps 749 mmHg 22%
    16:00 +34°C° 0 mm 1 mps 748 mmHg 21%
    17:00 +32°C° 0 mm 1 mps 748 mmHg 25%
    18:00 +30°C° 0 mm 1 mps 748 mmHg 29%
    19:00 +27°C° 0 mm 1 mps 749 mmHg 34%
    20:00 +26°C° 0 mm 1 mps 749 mmHg 38%
    21:00 +25°C° 0 mm 1 mps 749 mmHg 42%
    22:00 +24°C° 0 mm 1 mps 750 mmHg 47%
    23:00 +23°C° 0 mm 1 mps 750 mmHg 53%

    5 March, Sunday

    Time Temperature Precipitation Wind Pressure Humidity
    00:00 +22°C° 0 mm 1 mps 750 mmHg 60%
    01:00 +21°C° 0 mm 1 mps 749 mmHg 67%
    02:00 +21°C° 0 mm 1 mps 749 mmHg 71%
    03:00 +20°C° 0 mm 1 mps 749 mmHg 75%
    04:00 +19°C° 0 mm 1 mps 749 mmHg 80%
    05:00 +20°C° 0 mm 1 mps 750 mmHg 79%
    06:00 +20°C° 0 mm 1 mps 750 mmHg 78%
    07:00 +20°C° 0 mm 1 mps 751 mmHg 76%
    08:00 +23°C° 0 mm 1 mps 751 mmHg 65%
    09:00 +26°C° 0 mm 1 mps 751 mmHg 54%
    10:00 +29°C° 0 mm 1 mps 751 mmHg 43%
    11:00 +30°C° 0 mm 1 mps 750 mmHg 38%
    12:00 +32°C° 0 mm 2 mps 750 mmHg 33%
    13:00 +34°C° 0 mm 2 mps 749 mmHg 28%
    14:00 +34°C° 0 mm 2 mps 749 mmHg 26%
    15:00 +34°C° 0 mm 3 mps 749 mmHg 25%
    16:00 +34°C° 0 mm 3 mps 748 mmHg 24%
    17:00 +31°C° 0 mm 3 mps 749 mmHg 30%
    18:00 +29°C° 0 mm 2 mps 749 mmHg 36%
    19:00 +28°C° 0 mm 2 mps 749 mmHg 41%
    20:00 +26°C° 0 mm 2 mps 750 mmHg 47%
    21:00 +25°C° 0 mm 2 mps 750 mmHg 52%
    22:00 +24°C° 0 mm 2 mps 751 mmHg 57%
    23:00 +21°C° 0 mm 2 mps 751 mmHg 61%
    Show more